Content
SEND FEEDBACK

Daily
Averages
Monthly
Summary
United States of America

OAKS, TEXAS


Home > North America > United States > Texas
Elevation: 250 feet     Latitude: 28 35N     Longitude: 098 08W

WEATHER
 
SELECT A DAY
Number of Records: 179,924;   Date Range: 5/14/07 - 10/27/14
 
SHARE

PRINT THIS DATA

[ ← Previous Day ]
WEATHER ALMANAC - JANUARY 31, 2013
[ Next Day → ]
[ °C ]   °F
Weather ElementAverageHighLow
Temperature54.2 °F69.8 °F (3:15 pm)37.4 °F (2:35 am)
Dewpoint25.9 °F41 °F (11:35 pm)17.6 °F (12:55 am)
Humidity36.7 %71 % (11:35 pm)16 % (3:15 pm)
Barometer30.26 in30.33 in (10:35 am)30.20 in (4:35 pm)
Wind Speed5.8 mph12.7 mph (10:35 am)
Wind Gust17.3 mph (11:35 am)
Weather ElementAverage
Visibility10 mi
Wind DirectionSSE (151.6 °)

Weather ElementTotal
Precipitation---
Heating Degree Days11.4 (Base 65)
Growing Degree Days3.6 (Base 50)
Averaged from 62 records on January 31, 2013
WEATHER CONDITIONS BREAKOUT
WIND DIRECTION BREAKOUT
WEATHER BY HOUR - JANUARY 31, 2013
[ °C ]   °F
Local TimeTemperatureDewpointHumidityBarometerVisibilityWind DirectionWind SpeedGust SpeedPrecipitationEventsConditions
12:35 AM42.8 °F19.4 °F39 %30.23 in10.0 miNE (40°)4.6 mphClear
12:55 AM44.6 °F17.6 °F34 %30.24 in10.0 miCalmClear
1:15 AM44.6 °F17.6 °F34 %30.24 in10.0 miCalmClear
1:35 AM41.0 °F21.2 °F45 %30.25 in10.0 miCalmClear
1:55 AM44.6 °F19.4 °F37 %30.25 in10.0 miCalmClear
2:15 AM42.8 °F19.4 °F39 %30.24 in10.0 miCalmClear
2:35 AM37.4 °F23.0 °F56 %30.23 in10.0 miCalmClear
2:55 AM37.4 °F23.0 °F56 %30.23 in10.0 miCalmClear
3:15 AM42.8 °F19.4 °F39 %30.24 in10.0 miSE (130°)3.5 mphClear
3:35 AM42.8 °F21.2 °F42 %30.24 in10.0 miSouth (180°)3.5 mphClear
4:15 AM41.0 °F19.4 °F42 %30.24 in10.0 miWSW (250°)3.5 mphClear
4:35 AM41.0 °F19.4 °F42 %30.25 in10.0 miWSW (250°)5.8 mphClear
4:55 AM42.8 °F17.6 °F36 %30.25 in10.0 miWSW (250°)4.6 mphClear
5:15 AM42.8 °F19.4 °F39 %30.25 in10.0 miWSW (250°)5.8 mphClear
5:35 AM42.8 °F19.4 °F39 %30.24 in10.0 miWSW (250°)4.6 mphClear
5:55 AM42.8 °F19.4 °F39 %30.25 in10.0 miWSW (250°)6.9 mphClear
6:15 AM42.8 °F17.6 °F36 %30.26 in10.0 miWSW (250°)4.6 mphClear
6:55 AM42.8 °F17.6 °F36 %30.27 in10.0 miWSW (250°)4.6 mphClear
7:15 AM42.8 °F17.6 °F36 %30.28 in10.0 miWSW (250°)5.8 mphClear
7:35 AM42.8 °F19.4 °F39 %30.28 in10.0 miWSW (250°)4.6 mphClear
8:35 AM50.0 °F23.0 °F35 %30.30 in10.0 miSW (230°)5.8 mphClear
8:55 AM50.0 °F26.6 °F40 %30.31 in10.0 miSW (230°)4.6 mphClear
9:15 AM51.8 °F28.4 °F41 %30.31 in10.0 miSW (220°)5.8 mphClear
9:35 AM53.6 °F28.4 °F38 %30.32 in10.0 miSW (220°)5.8 mphClear
9:55 AM57.2 °F28.4 °F33 %30.32 in10.0 miSW (220°)6.9 mphClear
10:15 AM60.8 °F28.4 °F29 %30.32 in10.0 miSouth (190°)9.2 mphClear
10:35 AM62.6 °F26.6 °F26 %30.33 in10.0 miSouth (190°)12.7 mphClear
10:55 AM60.8 °F23.0 °F23 %30.32 in10.0 miSouth (190°)11.5 mphClear
11:15 AM62.6 °F23.0 °F22 %30.33 in10.0 miSSW (200°)10.4 mphClear
11:35 AM64.4 °F23.0 °F21 %30.33 in10.0 miSW (220°)10.4 mph17.3 mphClear
11:55 AM64.4 °F21.2 °F19 %30.32 in10.0 miSSW (200°)6.9 mphClear
12:15 PM66.2 °F21.2 °F18 %30.31 in10.0 miSouth (180°)9.2 mphClear
12:55 PM64.4 °F19.4 °F18 %30.30 in10.0 miSouth (190°)10.4 mphClear
1:15 PM66.2 °F21.2 °F18 %30.28 in10.0 miSouth (190°)9.2 mphClear
1:35 PM68.0 °F21.2 °F17 %30.27 in10.0 miSSW (200°)9.2 mphClear
1:55 PM68.0 °F23.0 °F18 %30.25 in10.0 miSouth (170°)10.4 mphClear
2:15 PM68.0 °F23.0 °F18 %30.23 in10.0 miSSE (160°)11.5 mph16.1 mphClear
2:35 PM68.0 °F21.2 °F17 %30.23 in10.0 miSouth (190°)6.9 mphClear
3:15 PM69.8 °F21.2 °F16 %30.21 in10.0 miSSE (160°)6.9 mphClear
3:35 PM69.8 °F21.2 °F16 %30.21 in10.0 miSSW (210°)5.8 mphClear
3:55 PM69.8 °F21.2 °F16 %30.21 in10.0 miSSE (150°)5.8 mphClear
4:35 PM69.8 °F21.2 °F16 %30.20 in10.0 miSSE (160°)9.2 mphClear
4:55 PM68.0 °F21.2 °F17 %30.20 in10.0 miSouth (170°)6.9 mphClear
5:15 PM68.0 °F23.0 °F18 %30.20 in10.0 miSSE (160°)11.5 mphClear
5:55 PM62.6 °F30.2 °F30 %30.20 in10.0 miSE (140°)11.5 mphClear
6:15 PM60.8 °F32.0 °F34 %30.21 in10.0 miSSE (150°)10.4 mphClear
6:35 PM59.0 °F32.0 °F36 %30.22 in10.0 miSE (140°)9.2 mphClear
6:55 PM57.2 °F33.8 °F41 %30.23 in10.0 miSSE (150°)9.2 mphClear
7:15 PM57.2 °F35.6 °F44 %30.23 in10.0 miSE (140°)9.2 mphClear
7:35 PM57.2 °F37.4 °F48 %30.25 in10.0 miSE (140°)6.9 mphClear
7:55 PM57.2 °F37.4 °F48 %30.26 in10.0 miSE (140°)6.9 mphClear
8:15 PM55.4 °F37.4 °F51 %30.27 in10.0 miSE (140°)5.8 mphClear
8:35 PM55.4 °F37.4 °F51 %30.27 in10.0 miSE (130°)4.6 mphClear
8:55 PM53.6 °F37.4 °F54 %30.28 in10.0 miSE (140°)4.6 mphClear
9:15 PM53.6 °F37.4 °F54 %30.28 in10.0 miSSE (150°)5.8 mphClear
9:35 PM51.8 °F37.4 °F58 %30.29 in10.0 miSSE (150°)3.5 mphClear
9:55 PM53.6 °F37.4 °F54 %30.29 in10.0 miSSE (160°)3.5 mphClear
10:15 PM51.8 °F37.4 °F58 %30.30 in10.0 miCalmClear
10:55 PM51.8 °F39.2 °F62 %30.30 in10.0 miCalmClear
11:15 PM51.8 °F39.2 °F62 %30.29 in10.0 miCalmClear
11:35 PM50.0 °F41.0 °F71 %30.30 in10.0 miCalmClear
11:55 PM50.0 °F39.2 °F66 %30.29 in10.0 miEast (80°)3.5 mphClear
Hourly data recorded from KBEA, located miles away from Oaks, Texas







STORIES FROM OUR PARTNERS